Regional Weather Roundup
Issued by NWS

Home | Current Version | Previous Version | Text Only | Print | Product List | Glossary On
Versions: 1 2 3 4 5 6 7 8 9 10 11 12 13 14 15 16 17 18 19 20 21 22 23 24 25 26 27 28
000
ASUS45 KBOI 171710
RWRID

IDAHO REGIONAL WEATHER ROUNDUP
NATIONAL WEATHER SERVICE BOISE ID
1100 AM MDT TUE OCT 17 2017

NOTE: "FAIR" INDICATES FEW OR NO CLOUDS BELOW 12000 FEET
WITH NO SIGNIFICANT WEATHER AND/OR OBSTRUCTIONS TO VISIBILITY

IDZ012-014-171800-
SOUTHWEST IDAHO


CITY           SKY/WX    TMP DP  RH WIND       PRES   REMARKS
BOISE          MOSUNNY   50  32  50 NE3       30.18S
CALDWELL       MOSUNNY   47  30  51 S5        30.19F
MOUNTAIN HOME  MOSUNNY   52  26  36 SE21      30.17F
$$

IDZ016-017-171800-
SOUTHCENTRAL IDAHO


CITY           SKY/WX    TMP DP  RH WIND       PRES   REMARKS
BURLEY         SUNNY     49  28  44 NE6       30.21F
JEROME         SUNNY     54  28  36 NE15      30.21S
TWIN FALLS     SUNNY     49  27  42 E6        30.21S
$$

IDZ019>023-171800-
SOUTHEAST IDAHO


CITY           SKY/WX    TMP DP  RH WIND       PRES   REMARKS
IDAHO FALLS    CLOUDY    40  31  70 N9        30.27F WCI  34
POCATELLO      SUNNY     49  28  44 N8        30.25F
REXBURG        SUNNY     44  29  55 CALM      30.26F
$$

IDZ006-010-011-018-031-032-171800-
CENTRAL IDAHO MOUNTAINS


CITY           SKY/WX    TMP DP  RH WIND       PRES   REMARKS
MCCALL         SUNNY     41  32  70 CALM      30.17F
HAILEY         MOSUNNY   48  21  34 NW12      30.27F
STANLEY          N/A     34  25  69 N6        30.28F WCI  29
SALMON         SUNNY     39  29  67 CALM      30.21F
CHALLIS        SUNNY     44  26  49 CALM      30.23F
$$

IDZ002-004-006-007-026-171800-
NORTHERN IDAHO


CITY           SKY/WX    TMP DP  RH WIND       PRES   REMARKS
LEWISTON       PTSUNNY   51  39  63 NE5       29.99S
LOWELL           N/A     42  38  85 N5        30.10F
COEUR D`ALENE  SUNNY     56  34  43 S14G22    29.91F
MULLAN PASS    SUNNY     48  24  39 S8G20     30.00S
$$




USA.gov is the U.S. government's official web portal to all federal, state and local government web resources and services.